Home > Weather > Idaho Falls > Past weeks

Flag for USA Past Weather in Idaho Falls, Idaho, USA — Yesterday and Last 2 Weeks

Now
66 °F

Clear.


Feels Like: 66 °F
Forecast: 61 / 90 °F
Wind: 9 mph from Southwest

Location: Fanning Field

Current Time: Jul 31, 2016 at 1:23:55 AM

Latest Report: Jul 31, 2016 at 12:53 AM


Visibility: 10 mi

Pressure: 29.76 "Hg (25.18 "Hg at 1429m altitude)

Humidity: 54%

Dew Point: 49 °F

Location of Idaho FallsLocation

Past Weather in Idaho Falls — Graph

°F

Idaho Falls Temperature Yesterday

Maximum temperature yesterday: 94 °F (at 4:53 PM)
Minimum temperature yesterday: 57 °F (at 5:53 AM)
Average temperature yesterday: 77 °F

High & Low Weather Summary for the Past Weeks

 TemperatureHumidityPressure
High95 °F (Jul 21, 4:53 PM)86% (Jul 19, 4:53 AM)30.10 "Hg (Jul 19, 4:53 AM)
Low42 °F (Jul 24, 5:53 AM)9% (Jul 22, 5:53 PM)29.70 "Hg (Jul 30, 6:53 PM)
Average72 °F39%29.94 "Hg
* Reported Jul 15 11:53 PM — Jul 30 11:53 PM, Idaho Falls, Weather by CustomWeather, © 2016

Note: Actual official high and low records may vary slightly from our data, if they occured in-between our weather recording intervals... More about our weather records

Advertising

Idaho Falls Weather History for the Previous 24 Hours

Scroll right to see more
 ConditionsComfort  
Time TempWeatherWind HumidityBarometerVisibility
11:53 PM
Sat, Jul 30
69 °FClear.8 mph47%29.74 "Hg10 mi
10:53 PM73 °FClear.10 mph40%29.73 "Hg10 mi
9:53 PM79 °FPassing clouds.13 mph30%29.72 "Hg10 mi
8:53 PM82 °FPassing clouds.8 mph29%29.72 "Hg10 mi
7:53 PM86 °FPassing clouds.12 mph25%29.72 "Hg10 mi
6:53 PM90 °FSunny.15 mph19%29.70 "Hg10 mi
5:53 PM92 °FScattered clouds.14 mph18%29.72 "Hg10 mi
4:53 PM94 °FSunny.16 mph15%29.73 "Hg10 mi
3:53 PM93 °FSunny.22 mph16%29.75 "Hg10 mi
2:53 PM92 °FSunny.14 mph18%29.77 "Hg10 mi
1:53 PM86 °FBroken clouds.18 mph24%29.80 "Hg10 mi
12:53 PM85 °FPartly sunny.16 mph24%29.81 "Hg10 mi
11:53 AM86 °FSunny.6 mph21%29.79 "Hg8 mi
10:53 AM82 °FSunny.3 mph27%29.80 "Hg8 mi
9:53 AM76 °FPassing clouds.5 mph32%29.82 "Hg8 mi
8:53 AM69 °FPassing clouds.No wind45%29.84 "Hg10 mi
7:53 AM61 °FClear.No wind62%29.84 "Hg10 mi
6:53 AM59 °FPassing clouds.3 mph62%29.83 "Hg10 mi
5:53 AM57 °FClear.5 mph64%29.82 "Hg10 mi
4:53 AM60 °FClear.6 mph58%29.79 "Hg10 mi
3:53 AM64 °FClear.12 mph49%29.77 "Hg10 mi
2:53 AM70 °FClear.16 mph35%29.75 "Hg10 mi
1:53 AM76 °FClear.13 mph26%29.75 "Hg10 mi
Weather by CustomWeather, © 2016

See weather overviewHow to use our weather pages